Time,TemperatureF,DewpointF,PressureIn,WindDirection,WindDirectionDegrees,WindSpeedMPH,WindSpeedGustMPH,Humidity,HourlyPrecipIn,Conditions,Clouds,dailyrainin,SoftwareType,DateUTC
2013-09-03 00:01:00,60.1,49.5,30.00,WSW,248,0.0,0.0,68,0.00,,---,0.00,VWS V14.00,2013-09-03 04:01:00,
2013-09-03 00:03:00,60.1,49.5,30.00,WSW,248,0.0,0.0,68,0.00,,---,0.00,VWS V14.00,2013-09-03 04:03:00,
2013-09-03 00:04:00,60.1,49.5,30.00,WSW,248,0.0,0.0,68,0.00,,---,0.00,VWS V14.00,2013-09-03 04:04:00,
2013-09-03 00:09:00,60.1,49.5,30.00,WSW,248,0.0,0.0,68,0.00,,---,0.00,VWS V14.00,2013-09-03 04:09:00,
2013-09-03 00:14:00,60.1,49.9,30.00,WSW,248,0.0,0.0,69,0.00,,---,0.00,VWS V14.00,2013-09-03 04:14:00,
2013-09-03 00:19:00,60.3,49.7,30.00,WSW,248,0.0,0.0,68,0.00,,---,0.00,VWS V14.00,2013-09-03 04:19:00,
2013-09-03 00:24:00,60.1,49.5,30.00,WSW,248,0.0,0.0,68,0.00,,---,0.00,VWS V14.00,2013-09-03 04:24:00,
2013-09-03 00:29:00,60.1,49.9,30.00,WSW,248,0.0,0.0,69,0.00,,---,0.00,VWS V14.00,2013-09-03 04:29:00,
2013-09-03 00:34:00,60.1,49.5,30.00,WSW,248,0.0,0.0,68,0.00,,---,0.00,VWS V14.00,2013-09-03 04:34:00,
2013-09-03 00:39:00,60.1,49.9,30.00,West,270,0.0,0.0,69,0.00,,---,0.00,VWS V14.00,2013-09-03 04:39:00,
2013-09-03 00:44:00,60.1,49.9,30.00,West,270,0.0,0.0,69,0.00,,---,0.00,VWS V14.00,2013-09-03 04:44:00,
2013-09-03 00:49:00,60.1,49.9,30.00,West,270,0.0,0.0,69,0.00,,---,0.00,VWS V14.00,2013-09-03 04:49:00,
2013-09-03 00:54:00,60.1,49.9,30.00,West,270,0.0,0.0,69,0.00,,---,0.00,VWS V14.00,2013-09-03 04:54:00,
2013-09-03 00:59:00,60.1,49.9,30.00,West,270,0.0,0.0,69,0.00,,---,0.00,VWS V14.00,2013-09-03 04:59:00,
2013-09-03 01:04:00,60.3,50.1,30.00,West,270,0.0,0.0,69,0.00,,---,0.00,VWS V14.00,2013-09-03 05:04:00,
2013-09-03 01:10:00,60.3,50.1,30.00,WSW,248,0.0,0.0,69,0.00,,---,0.00,VWS V14.00,2013-09-03 05:10:00,
2013-09-03 01:15:00,60.3,50.1,30.00,WSW,248,0.0,0.0,69,0.00,,---,0.00,VWS V14.00,2013-09-03 05:15:00,
2013-09-03 01:20:00,60.3,50.1,30.00,WSW,248,0.0,0.0,69,0.00,,---,0.00,VWS V14.00,2013-09-03 05:20:00,
2013-09-03 01:25:00,60.3,50.1,30.00,WSW,248,0.0,0.0,69,0.00,,---,0.00,VWS V14.00,2013-09-03 05:25:00,
2013-09-03 01:30:00,60.3,50.1,30.00,WSW,248,0.0,0.0,69,0.00,,---,0.00,VWS V14.00,2013-09-03 05:30:00,
2013-09-03 01:35:00,60.3,50.1,30.00,WSW,248,0.0,0.0,69,0.00,,---,0.00,VWS V14.00,2013-09-03 05:35:00,
2013-09-03 01:40:00,60.3,50.5,30.00,WSW,248,0.0,0.0,70,0.00,,---,0.00,VWS V14.00,2013-09-03 05:40:00,
2013-09-03 01:45:00,60.3,50.5,30.00,WSW,248,0.0,0.0,70,0.00,,---,0.00,VWS V14.00,2013-09-03 05:45:00,
2013-09-03 01:50:00,60.3,50.5,30.00,WSW,248,1.1,1.1,70,0.00,,---,0.00,VWS V14.00,2013-09-03 05:50:00,
2013-09-03 01:55:00,60.3,50.5,30.00,WSW,248,0.0,0.0,70,0.00,,---,0.00,VWS V14.00,2013-09-03 05:55:00,
2013-09-03 02:00:00,60.3,50.5,30.00,NW,315,0.0,0.0,70,0.00,,---,0.00,VWS V14.00,2013-09-03 06:00:00,
2013-09-03 02:05:00,60.1,50.3,30.00,NW,315,0.0,0.0,70,0.00,,---,0.00,VWS V14.00,2013-09-03 06:05:00,
2013-09-03 02:10:00,60.1,50.3,30.00,NW,315,0.0,0.0,70,0.00,,---,0.00,VWS V14.00,2013-09-03 06:10:00,
2013-09-03 02:16:00,60.1,50.3,30.00,WNW,292,0.0,0.0,70,0.00,,---,0.00,VWS V14.00,2013-09-03 06:16:00,
2013-09-03 02:21:00,60.1,50.3,30.00,WSW,248,0.0,0.0,70,0.00,,---,0.00,VWS V14.00,2013-09-03 06:21:00,
2013-09-03 02:26:00,59.9,50.1,30.00,WSW,248,0.0,0.0,70,0.00,,---,0.00,VWS V14.00,2013-09-03 06:26:00,
2013-09-03 02:31:00,59.9,50.5,30.00,WSW,248,0.0,0.0,71,0.00,,---,0.00,VWS V14.00,2013-09-03 06:31:00,
2013-09-03 02:36:00,59.9,50.5,30.00,WSW,248,0.0,0.0,71,0.00,,---,0.00,VWS V14.00,2013-09-03 06:36:00,
2013-09-03 02:41:00,59.7,50.3,30.00,West,270,0.0,0.0,71,0.00,,---,0.00,VWS V14.00,2013-09-03 06:41:00,
2013-09-03 02:46:00,59.9,50.5,30.00,West,270,0.0,0.0,71,0.00,,---,0.00,VWS V14.00,2013-09-03 06:46:00,
2013-09-03 02:51:00,59.7,50.3,30.00,WSW,248,0.0,0.0,71,0.00,,---,0.00,VWS V14.00,2013-09-03 06:51:00,
2013-09-03 02:56:00,59.9,50.5,30.00,WSW,248,0.0,0.0,71,0.00,,---,0.00,VWS V14.00,2013-09-03 06:56:00,
2013-09-03 03:01:00,59.7,50.3,30.00,WSW,248,1.3,1.6,71,0.00,,---,0.00,VWS V14.00,2013-09-03 07:01:00,
2013-09-03 03:07:00,59.7,50.3,30.00,WSW,248,0.9,2.0,71,0.00,,---,0.00,VWS V14.00,2013-09-03 07:07:00,
2013-09-03 03:12:00,59.7,50.3,30.00,WSW,248,0.0,0.0,71,0.00,,---,0.00,VWS V14.00,2013-09-03 07:12:00,
2013-09-03 03:17:00,59.5,50.5,30.00,NNW,338,0.0,0.0,72,0.00,,---,0.00,VWS V14.00,2013-09-03 07:17:00,
2013-09-03 03:22:00,59.5,50.5,30.00,West,270,0.0,0.0,72,0.00,,---,0.00,VWS V14.00,2013-09-03 07:22:00,
2013-09-03 03:27:00,59.4,50.3,29.97,NW,315,1.6,2.0,72,0.00,,---,0.00,VWS V14.00,2013-09-03 07:27:00,
2013-09-03 03:32:00,59.4,50.3,29.97,NW,315,0.0,0.0,72,0.00,,---,0.00,VWS V14.00,2013-09-03 07:32:00,
2013-09-03 03:37:00,59.4,50.3,29.97,NW,315,0.0,0.0,72,0.00,,---,0.00,VWS V14.00,2013-09-03 07:37:00,
2013-09-03 03:42:00,59.4,50.3,30.00,WSW,248,0.0,0.0,72,0.00,,---,0.00,VWS V14.00,2013-09-03 07:42:00,
2013-09-03 03:47:00,59.4,50.3,30.00,WSW,248,0.0,0.0,72,0.00,,---,0.00,VWS V14.00,2013-09-03 07:47:00,
2013-09-03 03:52:00,59.4,50.7,30.00,WSW,248,0.0,0.0,73,0.00,,---,0.00,VWS V14.00,2013-09-03 07:52:00,
2013-09-03 03:57:00,59.2,50.5,30.00,WSW,248,0.0,0.0,73,0.00,,---,0.00,VWS V14.00,2013-09-03 07:57:00,
2013-09-03 04:03:00,59.2,50.5,30.00,WSW,248,0.0,0.0,73,0.00,,---,0.00,VWS V14.00,2013-09-03 08:03:00,
2013-09-03 04:08:00,59.2,50.5,30.00,West,270,0.0,0.0,73,0.00,,---,0.00,VWS V14.00,2013-09-03 08:08:00,
2013-09-03 04:11:00,59.2,50.5,30.00,West,270,0.0,0.0,73,0.00,,---,0.00,VWS V14.00,2013-09-03 08:11:00,
2013-09-03 04:16:00,59.2,50.5,30.00,WSW,248,0.0,0.0,73,0.00,,---,0.00,VWS V14.00,2013-09-03 08:16:00,
2013-09-03 04:21:00,59.2,50.5,30.00,West,270,0.0,0.0,73,0.00,,---,0.00,VWS V14.00,2013-09-03 08:21:00,
2013-09-03 04:26:00,59.2,50.5,30.00,NW,315,0.0,0.0,73,0.00,,---,0.00,VWS V14.00,2013-09-03 08:26:00,
2013-09-03 04:31:00,59.2,50.5,30.00,WSW,248,0.0,0.0,73,0.00,,---,0.00,VWS V14.00,2013-09-03 08:31:00,
2013-09-03 04:36:00,59.2,50.5,30.00,WSW,248,0.0,0.0,73,0.00,,---,0.00,VWS V14.00,2013-09-03 08:36:00,
2013-09-03 04:41:00,59.2,50.5,30.00,NW,315,0.0,0.0,73,0.00,,---,0.00,VWS V14.00,2013-09-03 08:41:00,
2013-09-03 04:47:00,59.2,50.5,29.97,West,270,0.0,0.0,73,0.00,,---,0.00,VWS V14.00,2013-09-03 08:47:00,
2013-09-03 04:52:00,59.2,50.5,29.97,WSW,248,0.0,0.0,73,0.00,,---,0.00,VWS V14.00,2013-09-03 08:52:00,
2013-09-03 04:57:00,59.2,50.5,29.97,West,270,0.0,0.0,73,0.00,,---,0.00,VWS V14.00,2013-09-03 08:57:00,
2013-09-03 05:02:00,59.0,50.4,30.00,WSW,248,0.0,0.0,73,0.00,,---,0.00,VWS V14.00,2013-09-03 09:02:00,
2013-09-03 05:07:00,58.8,50.2,30.00,WSW,248,0.0,0.0,73,0.00,,---,0.00,VWS V14.00,2013-09-03 09:07:00,
2013-09-03 05:12:00,58.8,50.2,30.00,WSW,248,0.0,0.0,73,0.00,,---,0.00,VWS V14.00,2013-09-03 09:12:00,
2013-09-03 05:17:00,58.5,50.2,30.00,WSW,248,0.0,0.0,74,0.00,,---,0.00,VWS V14.00,2013-09-03 09:17:00,
2013-09-03 05:22:00,58.5,50.2,30.00,WSW,248,0.0,0.0,74,0.00,,---,0.00,VWS V14.00,2013-09-03 09:22:00,
2013-09-03 05:27:00,58.3,50.0,30.00,WSW,248,0.0,0.0,74,0.00,,---,0.00,VWS V14.00,2013-09-03 09:27:00,
2013-09-03 05:32:00,58.1,49.9,30.00,WSW,248,0.0,0.0,74,0.00,,---,0.00,VWS V14.00,2013-09-03 09:32:00,
2013-09-03 05:37:00,57.9,49.7,30.00,West,270,0.0,0.0,74,0.00,,---,0.00,VWS V14.00,2013-09-03 09:37:00,
2013-09-03 05:42:00,57.9,49.7,30.00,West,270,0.0,0.0,74,0.00,,---,0.00,VWS V14.00,2013-09-03 09:42:00,
2013-09-03 05:47:00,57.7,49.5,30.00,WNW,292,0.0,0.0,74,0.00,,---,0.00,VWS V14.00,2013-09-03 09:47:00,
2013-09-03 05:52:00,57.6,49.3,30.00,WNW,292,0.0,0.0,74,0.00,,---,0.00,VWS V14.00,2013-09-03 09:52:00,
2013-09-03 05:57:00,57.6,49.7,30.03,WNW,292,0.0,0.0,75,0.00,,---,0.00,VWS V14.00,2013-09-03 09:57:00,
2013-09-03 06:03:00,57.6,49.7,30.03,WNW,292,0.0,0.0,75,0.00,,---,0.00,VWS V14.00,2013-09-03 10:03:00,
2013-09-03 06:08:00,57.6,50.1,30.03,WNW,292,0.0,0.0,76,0.00,,---,0.00,VWS V14.00,2013-09-03 10:08:00,
2013-09-03 06:13:00,57.6,50.1,30.03,WNW,292,0.0,0.0,76,0.00,,---,0.00,VWS V14.00,2013-09-03 10:13:00,
2013-09-03 06:18:00,57.4,49.9,30.03,WSW,248,0.0,0.0,76,0.00,,---,0.00,VWS V14.00,2013-09-03 10:18:00,
2013-09-03 06:23:00,57.4,49.9,30.03,WSW,248,0.0,0.0,76,0.00,,---,0.00,VWS V14.00,2013-09-03 10:23:00,
2013-09-03 06:28:00,57.4,49.9,30.06,WSW,248,0.0,0.0,76,0.00,,---,0.00,VWS V14.00,2013-09-03 10:28:00,
2013-09-03 06:33:00,57.4,50.2,30.06,WSW,248,0.0,0.0,77,0.00,,---,0.00,VWS V14.00,2013-09-03 10:33:00,
2013-09-03 06:38:00,57.4,50.2,30.06,WSW,248,0.0,0.0,77,0.00,,---,0.00,VWS V14.00,2013-09-03 10:38:00,
2013-09-03 06:43:00,57.4,50.6,30.06,WSW,248,0.0,0.0,78,0.00,,---,0.00,VWS V14.00,2013-09-03 10:43:00,
2013-09-03 06:48:00,57.4,50.6,30.06,WSW,248,0.0,0.0,78,0.00,,---,0.00,VWS V14.00,2013-09-03 10:48:00,
2013-09-03 06:53:00,57.4,50.6,30.06,WSW,248,0.0,0.0,78,0.00,,---,0.00,VWS V14.00,2013-09-03 10:53:00,
2013-09-03 06:58:00,57.2,50.4,30.03,SW,225,0.0,0.0,78,0.00,,---,0.00,VWS V14.00,2013-09-03 10:58:00,
2013-09-03 07:03:00,57.2,50.4,30.03,SW,225,0.0,0.0,78,0.00,,---,0.00,VWS V14.00,2013-09-03 11:03:00,
2013-09-03 07:08:00,57.2,50.8,30.03,SW,225,0.0,0.0,79,0.00,,---,0.00,VWS V14.00,2013-09-03 11:08:00,
2013-09-03 07:13:00,57.0,50.6,30.06,SW,225,0.0,0.0,79,0.00,,---,0.00,VWS V14.00,2013-09-03 11:13:00,
2013-09-03 07:18:00,56.8,50.4,30.06,SW,225,0.0,0.0,79,0.00,,---,0.00,VWS V14.00,2013-09-03 11:18:00,
2013-09-03 07:23:00,56.8,50.7,30.06,SW,225,0.0,0.0,80,0.00,,---,0.00,VWS V14.00,2013-09-03 11:23:00,
2013-09-03 07:28:00,56.8,50.7,30.06,West,270,0.0,0.0,80,0.00,,---,0.00,VWS V14.00,2013-09-03 11:28:00,
2013-09-03 07:33:00,56.7,50.6,30.06,West,270,0.0,0.0,80,0.00,,---,0.00,VWS V14.00,2013-09-03 11:33:00,
2013-09-03 07:38:00,56.7,50.6,30.06,WSW,248,0.0,0.0,80,0.00,,---,0.00,VWS V14.00,2013-09-03 11:38:00,
2013-09-03 07:43:00,56.8,50.7,30.06,West,270,0.0,0.0,80,0.00,,---,0.00,VWS V14.00,2013-09-03 11:43:00,
2013-09-03 07:48:00,56.8,50.7,30.06,WSW,248,0.0,0.0,80,0.00,,---,0.00,VWS V14.00,2013-09-03 11:48:00,
2013-09-03 07:53:00,56.8,50.7,30.06,WSW,248,0.0,0.0,80,0.00,,---,0.00,VWS V14.00,2013-09-03 11:53:00,
2013-09-03 07:59:00,57.0,51.3,30.06,WSW,248,0.0,0.0,81,0.00,,---,0.00,VWS V14.00,2013-09-03 11:59:00,
2013-09-03 08:04:00,57.0,50.9,30.06,NW,315,0.9,1.6,80,0.00,,---,0.00,VWS V14.00,2013-09-03 12:04:00,
2013-09-03 08:09:00,57.2,50.8,30.06,SSW,202,0.0,0.0,79,0.00,,---,0.00,VWS V14.00,2013-09-03 12:09:00,
2013-09-03 08:14:00,57.4,50.9,30.06,SSW,202,0.0,0.0,79,0.00,,---,0.00,VWS V14.00,2013-09-03 12:14:00,
2013-09-03 08:19:00,57.6,51.1,30.06,SW,225,0.0,0.0,79,0.00,,---,0.00,VWS V14.00,2013-09-03 12:19:00,
2013-09-03 08:24:00,57.9,51.1,30.06,West,270,0.0,0.0,78,0.00,,---,0.00,VWS V14.00,2013-09-03 12:24:00,
2013-09-03 08:29:00,58.1,51.3,30.09,NNE,22,0.0,0.0,78,0.00,,---,0.00,VWS V14.00,2013-09-03 12:29:00,
2013-09-03 08:34:00,58.3,51.1,30.09,NE,45,1.3,2.5,77,0.00,,---,0.00,VWS V14.00,2013-09-03 12:34:00,
2013-09-03 08:39:00,58.5,51.3,30.09,NNW,338,1.6,1.6,77,0.00,,---,0.00,VWS V14.00,2013-09-03 12:39:00,
2013-09-03 08:44:00,58.6,51.5,30.06,WNW,292,1.1,1.3,77,0.00,,---,0.00,VWS V14.00,2013-09-03 12:44:00,
2013-09-03 08:49:00,59.4,51.1,30.06,West,270,1.3,1.3,74,0.00,,---,0.00,VWS V14.00,2013-09-03 12:49:00,
2013-09-03 08:54:00,59.9,51.6,30.06,NNW,338,0.0,1.1,74,0.00,,---,0.00,VWS V14.00,2013-09-03 12:54:00,
2013-09-03 08:59:00,60.1,51.4,30.09,NNW,338,1.6,1.6,73,0.00,,---,0.00,VWS V14.00,2013-09-03 12:59:00,
2013-09-03 09:04:00,60.1,51.4,30.09,WNW,292,0.0,0.9,73,0.00,,---,0.00,VWS V14.00,2013-09-03 13:04:00,
2013-09-03 09:09:00,60.4,51.8,30.09,WSW,248,0.0,0.9,73,0.00,,---,0.00,VWS V14.00,2013-09-03 13:09:00,
2013-09-03 09:14:00,60.4,51.4,30.09,North,0,0.0,0.0,72,0.00,,---,0.00,VWS V14.00,2013-09-03 13:14:00,
2013-09-03 09:19:00,60.6,51.6,30.09,WSW,248,0.0,0.0,72,0.00,,---,0.00,VWS V14.00,2013-09-03 13:19:00,
2013-09-03 09:24:00,60.8,51.3,30.09,North,0,0.0,1.1,71,0.00,,---,0.00,VWS V14.00,2013-09-03 13:24:00,
2013-09-03 09:30:00,61.2,51.7,30.09,NW,315,1.3,1.3,71,0.00,,---,0.00,VWS V14.00,2013-09-03 13:30:00,
2013-09-03 09:35:00,61.3,51.1,30.09,North,0,2.2,3.6,69,0.00,,---,0.00,VWS V14.00,2013-09-03 13:35:00,
2013-09-03 09:40:00,61.5,51.3,30.09,NW,315,2.0,2.2,69,0.00,,---,0.00,VWS V14.00,2013-09-03 13:40:00,
2013-09-03 09:45:00,61.7,51.0,30.12,NW,315,1.6,3.4,68,0.00,,---,0.00,VWS V14.00,2013-09-03 13:45:00,
2013-09-03 09:50:00,62.2,52.0,30.12,WSW,248,0.0,0.0,69,0.00,,---,0.00,VWS V14.00,2013-09-03 13:50:00,
2013-09-03 09:55:00,62.4,52.1,30.12,West,270,1.3,1.3,69,0.00,,---,0.00,VWS V14.00,2013-09-03 13:55:00,
2013-09-03 10:00:00,62.4,51.3,30.09,North,0,2.7,2.7,67,0.00,,---,0.00,VWS V14.00,2013-09-03 14:00:00,
2013-09-03 10:05:00,62.8,51.7,30.09,WNW,292,1.1,2.0,67,0.00,,---,0.00,VWS V14.00,2013-09-03 14:05:00,
2013-09-03 10:10:00,62.8,50.8,30.09,West,270,2.5,2.5,65,0.00,,---,0.00,VWS V14.00,2013-09-03 14:10:00,
2013-09-03 10:15:00,63.0,51.4,30.09,SW,225,1.6,1.6,66,0.00,,---,0.00,VWS V14.00,2013-09-03 14:15:00,
2013-09-03 10:20:00,63.1,51.2,30.09,West,270,1.3,1.3,65,0.00,,---,0.00,VWS V14.00,2013-09-03 14:20:00,
2013-09-03 10:25:00,63.0,51.0,30.09,NNW,338,2.0,2.5,65,0.00,,---,0.00,VWS V14.00,2013-09-03 14:25:00,
2013-09-03 10:30:00,63.3,51.8,30.12,West,270,1.3,1.6,66,0.00,,---,0.00,VWS V14.00,2013-09-03 14:30:00,
2013-09-03 10:35:00,63.5,51.5,30.12,WSW,248,0.0,0.9,65,0.00,,---,0.00,VWS V14.00,2013-09-03 14:35:00,
2013-09-03 10:40:00,63.7,51.3,30.12,North,0,2.0,2.0,64,0.00,,---,0.00,VWS V14.00,2013-09-03 14:40:00,
2013-09-03 10:45:00,63.9,51.5,30.09,North,0,2.5,3.6,64,0.00,,---,0.00,VWS V14.00,2013-09-03 14:45:00,
2013-09-03 10:51:00,64.0,52.0,30.09,North,0,0.0,0.0,65,0.00,,---,0.00,VWS V14.00,2013-09-03 14:51:00,
2013-09-03 10:56:00,64.4,52.4,30.09,NNE,22,1.6,1.6,65,0.00,,---,0.00,VWS V14.00,2013-09-03 14:56:00,
2013-09-03 11:01:00,64.4,51.5,30.09,NNW,338,2.0,2.0,63,0.00,,---,0.00,VWS V14.00,2013-09-03 15:01:00,
2013-09-03 11:06:00,64.8,51.5,30.09,West,270,4.0,4.0,62,0.00,,---,0.00,VWS V14.00,2013-09-03 15:06:00,
2013-09-03 11:11:00,64.9,51.6,30.09,North,0,1.6,1.6,62,0.00,,---,0.00,VWS V14.00,2013-09-03 15:11:00,
2013-09-03 11:16:00,65.1,51.3,30.12,SW,225,1.1,3.4,61,0.00,,---,0.00,VWS V14.00,2013-09-03 15:16:00,
2013-09-03 11:21:00,65.3,52.0,30.12,WSW,248,1.6,2.9,62,0.00,,---,0.00,VWS V14.00,2013-09-03 15:21:00,
2013-09-03 11:26:00,65.7,53.2,30.12,SSW,202,0.9,2.0,64,0.00,,---,0.00,VWS V14.00,2013-09-03 15:26:00,
2013-09-03 11:31:00,65.7,51.4,30.09,ENE,68,0.9,3.1,60,0.00,,---,0.00,VWS V14.00,2013-09-03 15:31:00,
2013-09-03 11:36:00,66.0,53.1,30.09,SW,225,0.9,2.7,63,0.00,,---,0.00,VWS V14.00,2013-09-03 15:36:00,
2013-09-03 11:41:00,66.7,53.3,30.09,NW,315,2.0,2.9,62,0.00,,---,0.00,VWS V14.00,2013-09-03 15:41:00,
2013-09-03 11:46:00,66.9,52.6,30.09,North,0,2.2,2.2,60,0.00,,---,0.00,VWS V14.00,2013-09-03 15:46:00,
2013-09-03 11:51:00,67.1,52.8,30.09,North,0,2.9,2.9,60,0.00,,---,0.00,VWS V14.00,2013-09-03 15:51:00,
2013-09-03 11:56:00,67.5,52.2,30.09,NNE,22,2.0,2.5,58,0.00,,---,0.00,VWS V14.00,2013-09-03 15:56:00,
2013-09-03 12:01:00,67.5,52.7,30.09,NNE,22,2.0,2.0,59,0.00,,---,0.00,VWS V14.00,2013-09-03 16:01:00,
2013-09-03 12:06:00,68.0,52.7,30.09,NW,315,1.1,1.1,58,0.00,,---,0.00,VWS V14.00,2013-09-03 16:06:00,
2013-09-03 12:12:00,67.8,51.1,30.09,North,0,2.5,3.4,55,0.00,,---,0.00,VWS V14.00,2013-09-03 16:12:00,
2013-09-03 12:17:00,67.8,52.0,30.09,WSW,248,2.0,2.2,57,0.00,,---,0.00,VWS V14.00,2013-09-03 16:17:00,
2013-09-03 12:22:00,68.2,51.4,30.09,NNE,22,3.4,3.4,55,0.00,,---,0.00,VWS V14.00,2013-09-03 16:22:00,
2013-09-03 12:27:00,68.5,53.2,30.09,West,270,2.2,2.5,58,0.00,,---,0.00,VWS V14.00,2013-09-03 16:27:00,
2013-09-03 12:32:00,69.1,53.2,30.09,NE,45,2.5,3.4,57,0.00,,---,0.00,VWS V14.00,2013-09-03 16:32:00,
2013-09-03 12:37:00,69.3,52.9,30.09,WSW,248,1.6,2.7,56,0.00,,---,0.00,VWS V14.00,2013-09-03 16:37:00,
2013-09-03 12:42:00,69.6,52.3,30.06,North,0,1.3,2.2,54,0.00,,---,0.00,VWS V14.00,2013-09-03 16:42:00,
2013-09-03 12:47:00,69.8,51.9,30.06,SW,225,3.6,3.6,53,0.00,,---,0.00,VWS V14.00,2013-09-03 16:47:00,
2013-09-03 12:52:00,70.2,52.8,30.06,North,0,1.3,1.6,54,0.00,,---,0.00,VWS V14.00,2013-09-03 16:52:00,
2013-09-03 12:57:00,70.3,53.4,30.06,West,270,1.6,2.2,55,0.00,,---,0.00,VWS V14.00,2013-09-03 16:57:00,
2013-09-03 13:02:00,70.7,53.3,30.06,North,0,1.1,2.2,54,0.00,,---,0.00,VWS V14.00,2013-09-03 17:02:00,
2013-09-03 13:07:00,70.9,52.9,30.06,North,0,1.6,2.0,53,0.00,,---,0.00,VWS V14.00,2013-09-03 17:07:00,
2013-09-03 13:12:00,71.1,53.6,30.06,South,180,1.3,2.2,54,0.00,,---,0.00,VWS V14.00,2013-09-03 17:12:00,
2013-09-03 13:17:00,71.4,52.9,30.03,SW,225,0.0,2.2,52,0.00,,---,0.00,VWS V14.00,2013-09-03 17:17:00,
2013-09-03 13:22:00,71.2,52.7,30.03,NNW,338,1.6,1.6,52,0.00,,---,0.00,VWS V14.00,2013-09-03 17:22:00,
2013-09-03 13:27:00,71.8,52.7,30.06,NNE,22,2.2,2.2,51,0.00,,---,0.00,VWS V14.00,2013-09-03 17:27:00,
2013-09-03 13:32:00,72.1,54.1,30.06,NW,315,1.1,1.1,53,0.00,,---,0.00,VWS V14.00,2013-09-03 17:32:00,
2013-09-03 13:37:00,72.0,52.9,30.06,WSW,248,1.3,1.6,51,0.00,,---,0.00,VWS V14.00,2013-09-03 17:37:00,
2013-09-03 13:42:00,72.0,53.4,30.06,SW,225,0.9,1.3,52,0.00,,---,0.00,VWS V14.00,2013-09-03 17:42:00,
2013-09-03 13:48:00,71.2,53.2,30.06,NW,315,0.9,0.9,53,0.00,,---,0.00,VWS V14.00,2013-09-03 17:48:00,
2013-09-03 13:53:00,71.1,53.1,30.06,NNW,338,2.0,3.8,53,0.00,,---,0.00,VWS V14.00,2013-09-03 17:53:00,
2013-09-03 13:58:00,72.0,53.9,30.06,NNE,22,0.0,1.6,53,0.00,,---,0.00,VWS V14.00,2013-09-03 17:58:00,
2013-09-03 14:03:00,72.5,54.4,30.06,NNW,338,1.1,2.2,53,0.00,,---,0.00,VWS V14.00,2013-09-03 18:03:00,
2013-09-03 14:08:00,73.2,55.1,30.06,North,0,4.0,4.0,53,0.00,,---,0.00,VWS V14.00,2013-09-03 18:08:00,
2013-09-03 14:13:00,73.4,54.7,30.06,WSW,248,1.3,3.4,52,0.00,,---,0.00,VWS V14.00,2013-09-03 18:13:00,
2013-09-03 14:18:00,73.9,55.8,30.06,West,270,3.6,3.6,53,0.00,,---,0.00,VWS V14.00,2013-09-03 18:18:00,
2013-09-03 14:23:00,73.4,54.2,30.06,WSW,248,3.1,3.1,51,0.00,,---,0.00,VWS V14.00,2013-09-03 18:23:00,
2013-09-03 14:28:00,72.5,53.4,30.06,SW,225,2.2,3.8,51,0.00,,---,0.00,VWS V14.00,2013-09-03 18:28:00,
2013-09-03 14:33:00,73.0,53.9,30.06,NNW,338,0.0,1.3,51,0.00,,---,0.00,VWS V14.00,2013-09-03 18:33:00,
2013-09-03 14:38:00,73.4,53.7,30.06,WSW,248,2.9,2.9,50,0.00,,---,0.00,VWS V14.00,2013-09-03 18:38:00,
2013-09-03 14:43:00,73.4,53.7,30.03,WSW,248,0.9,1.1,50,0.00,,---,0.00,VWS V14.00,2013-09-03 18:43:00,
2013-09-03 14:48:00,74.1,54.3,30.03,WSW,248,2.7,2.7,50,0.00,,---,0.00,VWS V14.00,2013-09-03 18:48:00,
2013-09-03 14:53:00,74.5,55.2,30.03,WSW,248,1.6,1.6,51,0.00,,---,0.00,VWS V14.00,2013-09-03 18:53:00,
2013-09-03 14:58:00,74.1,53.8,30.03,South,180,2.0,2.0,49,0.00,,---,0.00,VWS V14.00,2013-09-03 18:58:00,
2013-09-03 15:03:00,74.3,54.5,30.03,NNE,22,1.6,1.6,50,0.00,,---,0.00,VWS V14.00,2013-09-03 19:03:00,
2013-09-03 15:08:00,74.3,53.9,30.03,NNE,22,1.3,2.0,49,0.00,,---,0.00,VWS V14.00,2013-09-03 19:08:00,
2013-09-03 15:14:00,74.1,53.8,30.03,SSW,202,0.9,2.0,49,0.00,,---,0.00,VWS V14.00,2013-09-03 19:14:00,
2013-09-03 15:19:00,73.4,52.5,30.03,WSW,248,1.6,1.6,48,0.00,,---,0.00,VWS V14.00,2013-09-03 19:19:00,
2013-09-03 15:24:00,72.7,53.0,30.03,WSW,248,1.1,1.1,50,0.00,,---,0.00,VWS V14.00,2013-09-03 19:24:00,
2013-09-03 15:29:00,73.0,53.9,30.00,South,180,1.3,2.0,51,0.00,,---,0.00,VWS V14.00,2013-09-03 19:29:00,
2013-09-03 15:34:00,73.4,53.1,30.00,WNW,292,2.0,4.0,49,0.00,,---,0.00,VWS V14.00,2013-09-03 19:34:00,
2013-09-03 15:39:00,73.2,52.9,30.00,North,0,1.3,3.1,49,0.00,,---,0.00,VWS V14.00,2013-09-03 19:39:00,
2013-09-03 15:44:00,73.2,53.5,30.00,SSW,202,1.1,3.1,50,0.00,,---,0.00,VWS V14.00,2013-09-03 19:44:00,
2013-09-03 15:49:00,73.2,54.0,30.00,West,270,2.5,2.5,51,0.00,,---,0.00,VWS V14.00,2013-09-03 19:49:00,
2013-09-03 15:54:00,73.6,53.8,30.00,NW,315,2.9,3.6,50,0.00,,---,0.00,VWS V14.00,2013-09-03 19:54:00,
2013-09-03 15:59:00,73.6,53.3,29.97,NE,45,1.1,4.0,49,0.00,,---,0.00,VWS V14.00,2013-09-03 19:59:00,
2013-09-03 16:04:00,73.2,52.4,29.97,WSW,248,2.5,2.5,48,0.00,,---,0.00,VWS V14.00,2013-09-03 20:04:00,
2013-09-03 16:09:00,73.0,52.8,29.97,West,270,3.1,3.1,49,0.00,,---,0.00,VWS V14.00,2013-09-03 20:09:00,
2013-09-03 16:14:00,73.0,52.8,30.00,WSW,248,5.8,5.8,49,0.00,,---,0.00,VWS V14.00,2013-09-03 20:14:00,
2013-09-03 16:19:00,73.2,52.9,30.00,NW,315,4.5,4.5,49,0.00,,---,0.00,VWS V14.00,2013-09-03 20:19:00,
2013-09-03 16:24:00,73.2,52.9,30.00,NNE,22,1.6,3.6,49,0.00,,---,0.00,VWS V14.00,2013-09-03 20:24:00,
2013-09-03 16:29:00,72.9,53.2,30.00,NW,315,1.1,3.4,50,0.00,,---,0.00,VWS V14.00,2013-09-03 20:29:00,
2013-09-03 16:34:00,72.7,53.0,30.00,North,0,1.6,1.6,50,0.00,,---,0.00,VWS V14.00,2013-09-03 20:34:00,
2013-09-03 16:39:00,72.3,53.2,30.00,SW,225,1.1,2.0,51,0.00,,---,0.00,VWS V14.00,2013-09-03 20:39:00,
2013-09-03 16:44:00,72.5,53.4,30.00,North,0,1.3,2.0,51,0.00,,---,0.00,VWS V14.00,2013-09-03 20:44:00,
2013-09-03 16:49:00,72.5,53.4,30.00,NNE,22,1.1,1.3,51,0.00,,---,0.00,VWS V14.00,2013-09-03 20:49:00,
2013-09-03 16:54:00,72.5,53.4,30.00,SSW,202,1.1,1.6,51,0.00,,---,0.00,VWS V14.00,2013-09-03 20:54:00,
2013-09-03 16:59:00,72.7,54.1,30.00,WSW,248,0.0,1.6,52,0.00,,---,0.00,VWS V14.00,2013-09-03 20:59:00,
2013-09-03 17:04:00,72.7,53.5,30.00,North,0,1.6,4.3,51,0.00,,---,0.00,VWS V14.00,2013-09-03 21:04:00,
2013-09-03 17:09:00,72.5,52.8,30.00,West,270,1.3,2.7,50,0.00,,---,0.00,VWS V14.00,2013-09-03 21:09:00,
2013-09-03 17:14:00,72.5,53.4,30.00,SSW,202,1.6,2.7,51,0.00,,---,0.00,VWS V14.00,2013-09-03 21:14:00,
2013-09-03 17:19:00,72.1,53.0,30.00,WNW,292,0.0,0.9,51,0.00,,---,0.00,VWS V14.00,2013-09-03 21:19:00,
2013-09-03 17:24:00,72.0,52.9,30.00,WNW,292,2.0,3.1,51,0.00,,---,0.00,VWS V14.00,2013-09-03 21:24:00,
2013-09-03 17:29:00,72.0,53.4,30.00,NNE,22,1.6,2.0,52,0.00,,---,0.00,VWS V14.00,2013-09-03 21:29:00,
2013-09-03 17:34:00,72.0,52.9,30.00,SW,225,0.9,3.8,51,0.00,,---,0.00,VWS V14.00,2013-09-03 21:34:00,
2013-09-03 17:39:00,71.8,52.7,30.00,West,270,0.0,2.5,51,0.00,,---,0.00,VWS V14.00,2013-09-03 21:39:00,
2013-09-03 17:44:00,71.8,53.2,30.00,WSW,248,4.3,4.3,52,0.00,,---,0.00,VWS V14.00,2013-09-03 21:44:00,
2013-09-03 17:49:00,71.6,53.1,30.00,West,270,0.9,0.9,52,0.00,,---,0.00,VWS V14.00,2013-09-03 21:49:00,
2013-09-03 17:54:00,71.4,53.4,30.00,SSW,202,1.3,4.0,53,0.00,,---,0.00,VWS V14.00,2013-09-03 21:54:00,
2013-09-03 17:59:00,71.4,53.4,29.97,WSW,248,0.0,0.0,53,0.00,,---,0.00,VWS V14.00,2013-09-03 21:59:00,
2013-09-03 18:04:00,71.2,53.8,29.97,SW,225,1.3,2.7,54,0.00,,---,0.00,VWS V14.00,2013-09-03 22:04:00,
2013-09-03 18:09:00,70.9,53.4,29.97,NW,315,3.4,3.4,54,0.00,,---,0.00,VWS V14.00,2013-09-03 22:09:00,
2013-09-03 18:14:00,70.5,53.1,30.00,WNW,292,2.9,3.6,54,0.00,,---,0.00,VWS V14.00,2013-09-03 22:14:00,
2013-09-03 18:19:00,70.3,52.9,30.00,North,0,2.7,2.7,54,0.00,,---,0.00,VWS V14.00,2013-09-03 22:19:00,
2013-09-03 18:24:00,70.2,53.3,30.00,West,270,0.9,1.1,55,0.00,,---,0.00,VWS V14.00,2013-09-03 22:24:00,
2013-09-03 18:29:00,70.0,53.1,30.00,West,270,1.3,1.3,55,0.00,,---,0.00,VWS V14.00,2013-09-03 22:29:00,
2013-09-03 18:34:00,69.8,52.9,30.00,SW,225,0.0,0.9,55,0.00,,---,0.00,VWS V14.00,2013-09-03 22:34:00,
2013-09-03 18:39:00,69.4,53.1,30.00,WSW,248,1.1,1.3,56,0.00,,---,0.00,VWS V14.00,2013-09-03 22:39:00,
2013-09-03 18:44:00,69.3,53.4,30.00,WSW,248,2.0,3.8,57,0.00,,---,0.00,VWS V14.00,2013-09-03 22:44:00,
2013-09-03 18:49:00,68.9,53.5,30.00,WNW,292,0.0,1.3,58,0.00,,---,0.00,VWS V14.00,2013-09-03 22:49:00,
2013-09-03 18:54:00,68.7,53.4,30.00,West,270,3.4,3.4,58,0.00,,---,0.00,VWS V14.00,2013-09-03 22:54:00,
2013-09-03 18:59:00,68.7,53.8,30.00,WSW,248,2.9,2.9,59,0.00,,---,0.00,VWS V14.00,2013-09-03 22:59:00,
2013-09-03 19:04:00,68.7,53.8,30.00,SW,225,0.0,0.0,59,0.00,,---,0.00,VWS V14.00,2013-09-03 23:04:00,
2013-09-03 19:09:00,68.4,53.5,30.00,West,270,3.8,3.8,59,0.00,,---,0.00,VWS V14.00,2013-09-03 23:09:00,
2013-09-03 19:14:00,68.2,53.3,30.00,SW,225,0.0,0.0,59,0.00,,---,0.00,VWS V14.00,2013-09-03 23:14:00,
2013-09-03 19:19:00,68.0,53.6,30.00,West,270,2.0,2.0,60,0.00,,---,0.00,VWS V14.00,2013-09-03 23:19:00,
2013-09-03 19:24:00,67.8,54.3,30.00,SW,225,0.0,2.7,62,0.00,,---,0.00,VWS V14.00,2013-09-03 23:24:00,
2013-09-03 19:29:00,67.8,54.3,30.00,WSW,248,0.0,1.1,62,0.00,,---,0.00,VWS V14.00,2013-09-03 23:29:00,
2013-09-03 19:34:00,67.6,54.2,30.00,West,270,0.0,0.0,62,0.00,,---,0.00,VWS V14.00,2013-09-03 23:34:00,
2013-09-03 19:39:00,67.5,54.4,30.00,WSW,248,0.9,2.2,63,0.00,,---,0.00,VWS V14.00,2013-09-03 23:39:00,
2013-09-03 19:44:00,67.3,54.3,30.00,NW,315,2.0,2.0,63,0.00,,---,0.00,VWS V14.00,2013-09-03 23:44:00,
2013-09-03 19:49:00,67.1,54.5,30.00,West,270,0.0,1.1,64,0.00,,---,0.00,VWS V14.00,2013-09-03 23:49:00,
2013-09-03 19:54:00,66.9,54.4,30.00,West,270,0.0,0.0,64,0.00,,---,0.00,VWS V14.00,2013-09-03 23:54:00,
2013-09-03 19:59:00,66.7,54.2,30.00,West,270,0.0,0.0,64,0.00,,---,0.00,VWS V14.00,2013-09-03 23:59:00,
2013-09-03 20:04:00,66.6,54.4,30.00,WSW,248,0.0,0.0,65,0.00,,---,0.00,VWS V14.00,2013-09-04 00:04:00,
2013-09-03 20:09:00,66.2,54.5,30.00,WSW,248,0.0,0.0,66,0.00,,---,0.00,VWS V14.00,2013-09-04 00:09:00,
2013-09-03 20:14:00,65.8,54.2,30.00,WSW,248,0.0,0.0,66,0.00,,---,0.00,VWS V14.00,2013-09-04 00:14:00,
2013-09-03 20:19:00,65.7,54.4,30.00,SW,225,0.0,0.0,67,0.00,,---,0.00,VWS V14.00,2013-09-04 00:19:00,
2013-09-03 20:24:00,65.5,54.7,30.00,WSW,248,0.0,0.0,68,0.00,,---,0.00,VWS V14.00,2013-09-04 00:24:00,
2013-09-03 20:29:00,65.1,54.3,30.00,WSW,248,0.0,0.0,68,0.00,,---,0.00,VWS V14.00,2013-09-04 00:29:00,
2013-09-03 20:34:00,64.9,54.1,30.00,WSW,248,0.0,0.0,68,0.00,,---,0.00,VWS V14.00,2013-09-04 00:34:00,
2013-09-03 20:39:00,64.8,54.4,30.00,WSW,248,0.0,0.0,69,0.00,,---,0.00,VWS V14.00,2013-09-04 00:39:00,
2013-09-03 20:44:00,64.6,54.6,30.00,WSW,248,0.0,0.0,70,0.00,,---,0.00,VWS V14.00,2013-09-04 00:44:00,
2013-09-03 20:49:00,64.2,54.2,30.00,WSW,248,0.0,0.0,70,0.00,,---,0.00,VWS V14.00,2013-09-04 00:49:00,
2013-09-03 20:54:00,63.7,54.1,30.00,WSW,248,0.0,0.0,71,0.00,,---,0.00,VWS V14.00,2013-09-04 00:54:00,
2013-09-03 20:59:00,63.3,54.2,30.03,WSW,248,0.0,0.0,72,0.00,,---,0.00,VWS V14.00,2013-09-04 00:59:00,
2013-09-03 21:04:00,63.1,54.0,30.03,WSW,248,0.0,0.0,72,0.00,,---,0.00,VWS V14.00,2013-09-04 01:04:00,
2013-09-03 21:09:00,63.0,54.2,30.03,WSW,248,0.0,0.0,73,0.00,,---,0.00,VWS V14.00,2013-09-04 01:09:00,
2013-09-03 21:14:00,63.0,54.2,30.06,WSW,248,0.0,0.0,73,0.00,,---,0.00,VWS V14.00,2013-09-04 01:14:00,
2013-09-03 21:19:00,62.8,54.4,30.06,WSW,248,0.0,0.0,74,0.00,,---,0.00,VWS V14.00,2013-09-04 01:19:00,
2013-09-03 21:24:00,62.6,54.2,30.06,WSW,248,0.0,0.0,74,0.00,,---,0.00,VWS V14.00,2013-09-04 01:24:00,
2013-09-03 21:29:00,62.4,54.4,30.06,WSW,248,0.0,0.0,75,0.00,,---,0.00,VWS V14.00,2013-09-04 01:29:00,
2013-09-03 21:34:00,62.2,54.6,30.06,WSW,248,0.0,0.0,76,0.00,,---,0.00,VWS V14.00,2013-09-04 01:34:00,
2013-09-03 21:39:00,62.1,54.8,30.06,WSW,248,0.0,0.0,77,0.00,,---,0.00,VWS V14.00,2013-09-04 01:39:00,
2013-09-03 21:44:00,61.9,54.6,30.06,WSW,248,0.0,0.0,77,0.00,,---,0.00,VWS V14.00,2013-09-04 01:44:00,
2013-09-03 21:49:00,61.7,54.4,30.06,WSW,248,0.0,0.0,77,0.00,,---,0.00,VWS V14.00,2013-09-04 01:49:00,
2013-09-03 21:54:00,61.5,54.6,30.06,WSW,248,0.0,0.0,78,0.00,,---,0.00,VWS V14.00,2013-09-04 01:54:00,
2013-09-03 21:59:00,61.3,54.4,30.06,WSW,248,0.0,0.0,78,0.00,,---,0.00,VWS V14.00,2013-09-04 01:59:00,
2013-09-03 22:04:00,61.2,54.6,30.06,WSW,248,0.0,0.0,79,0.00,,---,0.00,VWS V14.00,2013-09-04 02:04:00,
2013-09-03 22:09:00,60.8,54.3,30.06,WSW,248,0.0,0.0,79,0.00,,---,0.00,VWS V14.00,2013-09-04 02:09:00,
2013-09-03 22:14:00,60.8,54.3,30.06,WSW,248,0.0,0.0,79,0.00,,---,0.00,VWS V14.00,2013-09-04 02:14:00,
2013-09-03 22:19:00,60.6,54.4,30.06,WSW,248,0.0,0.0,80,0.00,,---,0.00,VWS V14.00,2013-09-04 02:19:00,
2013-09-03 22:24:00,60.4,54.2,30.06,WSW,248,0.0,0.0,80,0.00,,---,0.00,VWS V14.00,2013-09-04 02:24:00,
2013-09-03 22:29:00,60.3,54.4,30.06,WSW,248,0.0,0.0,81,0.00,,---,0.00,VWS V14.00,2013-09-04 02:29:00,
2013-09-03 22:34:00,60.3,54.8,30.06,WSW,248,0.0,0.0,82,0.00,,---,0.00,VWS V14.00,2013-09-04 02:34:00,
2013-09-03 22:39:00,60.1,54.6,30.06,WSW,248,0.0,0.0,82,0.00,,---,0.00,VWS V14.00,2013-09-04 02:39:00,
2013-09-03 22:44:00,60.1,54.6,30.06,WSW,248,0.0,0.0,82,0.00,,---,0.00,VWS V14.00,2013-09-04 02:44:00,
2013-09-03 22:49:00,59.9,54.4,30.06,WSW,248,0.0,0.0,82,0.00,,---,0.00,VWS V14.00,2013-09-04 02:49:00,
2013-09-03 22:54:00,59.7,54.2,30.06,WSW,248,0.0,0.0,82,0.00,,---,0.00,VWS V14.00,2013-09-04 02:54:00,
2013-09-03 22:59:00,59.7,54.2,30.06,WSW,248,0.0,0.0,82,0.00,,---,0.00,VWS V14.00,2013-09-04 02:59:00,
2013-09-03 23:04:00,59.5,54.0,30.06,WSW,248,0.0,0.0,82,0.00,,---,0.00,VWS V14.00,2013-09-04 03:04:00,
2013-09-03 23:09:00,59.5,54.4,30.06,WSW,248,0.0,0.0,83,0.00,,---,0.00,VWS V14.00,2013-09-04 03:09:00,
2013-09-03 23:14:00,59.5,54.4,30.06,WSW,248,0.0,0.0,83,0.00,,---,0.00,VWS V14.00,2013-09-04 03:14:00,
2013-09-03 23:19:00,59.4,54.2,30.06,WSW,248,0.0,0.0,83,0.00,,---,0.00,VWS V14.00,2013-09-04 03:19:00,
2013-09-03 23:24:00,59.4,54.2,30.06,WSW,248,0.0,0.0,83,0.00,,---,0.00,VWS V14.00,2013-09-04 03:24:00,
2013-09-03 23:29:00,59.4,54.2,30.03,WSW,248,0.0,0.0,83,0.00,,---,0.00,VWS V14.00,2013-09-04 03:29:00,
2013-09-03 23:34:00,59.2,54.4,30.03,WSW,248,0.0,0.0,84,0.00,,---,0.00,VWS V14.00,2013-09-04 03:34:00,
2013-09-03 23:39:00,59.2,54.4,30.03,WSW,248,0.0,0.0,84,0.00,,---,0.00,VWS V14.00,2013-09-04 03:39:00,
2013-09-03 23:44:00,59.2,54.4,30.06,WSW,248,0.0,0.0,84,0.00,,---,0.00,VWS V14.00,2013-09-04 03:44:00,
2013-09-03 23:49:00,59.0,54.2,30.06,WSW,248,0.0,0.0,84,0.00,,---,0.00,VWS V14.00,2013-09-04 03:49:00,
2013-09-03 23:54:00,59.0,54.2,30.06,WSW,248,0.0,0.0,84,0.00,,---,0.00,VWS V14.00,2013-09-04 03:54:00,
2013-09-03 23:59:00,58.8,54.3,30.06,WSW,248,0.0,0.0,85,0.00,,---,0.00,VWS V14.00,2013-09-04 03:59:00,